Walla Walla, WA
on Tuesday, January 8, 2013

Tuesday
Previous Day Next Day
Daily Summary
 ActualAverage (KPDT)Record (KPDT)
Temperature
Mean Temperature °F 34°F  
Max Temperature 55°F 41°F 65°F (1933)
Min Temperature 42°F 28°F -14°F (1937)
Degree Days
Heating Degree Days 16 31  
Month to date heating degree days 251  
Since 1 July heating degree days 2488  
Cooling Degree Days 0 0  
Month to date cooling degree days 0  
Year to date cooling degree days 0  
Moisture
Dew Point 39°F   
Average Humidity 72    
Maximum Humidity 93    
Minimum Humidity 47    
Precipitation
Precipitation 0.12 in 0.05 in 0.69 in (1980)
Month to date precipitation 0.40  
Year to date precipitation 0.40  
Snow
Snow 0.00 in 0.10 in 9.50 in (1980)
Month to date snowfall 1.2  
Year to date snowfall 1.2  
Since 1 July snowfall 8.7  
Snow Depth in   
Wind
Wind Speed 12 mph   
Max Wind Speed 21 mph   
Max Gust Speed 28 mph   
Visibility 8 miles   
Events Rain   

Key: T is trace of precipitation, MM is missing value
Source: NWS Daily Summary
Time(PST)TemperatureDew PointHumidity Pressure Visibility Wind DirectionWind SpeedGust SpeedPrecipitationEvents Conditions
12:53 AM 46.9°F 35.1°F 63% 30.14 in 10.0 miles SSW 17.3 mph 25.3 mph N/A   Overcast
1:53 AM 46.0°F 35.1°F 66% 30.16 in 10.0 miles SSW 11.5 mph - N/A   Overcast
2:53 AM 44.1°F 35.1°F 71% 30.17 in 10.0 miles South 11.5 mph - N/A   Partly Cloudy
3:53 AM 44.1°F 34.0°F 68% 30.17 in 10.0 miles SSE 6.9 mph - N/A   Mostly Cloudy
4:53 AM 44.1°F 34.0°F 68% 30.16 in 10.0 miles South 8.1 mph - N/A   Overcast
5:53 AM 44.1°F 34.0°F 68% 30.16 in 10.0 miles South 11.5 mph - N/A   Overcast
7:53 AM 42.1°F 36.0°F 79% 30.17 in 10.0 miles South 9.2 mph - 0.03 in Rain Light Rain
8:53 AM 42.1°F 37.0°F 82% 30.16 in 9.0 miles South 8.1 mph - 0.01 in Rain Light Rain
9:08 AM 42.8°F 37.4°F 81% 30.15 in 7.0 miles SSW 8.1 mph - 0.01 in Rain Light Rain
9:23 AM 42.8°F 37.4°F 81% 30.14 in 6.0 miles South 6.9 mph - 0.01 in Rain Light Rain
9:53 AM 43.0°F 37.9°F 82% 30.14 in 10.0 miles Calm Calm - 0.02 in Rain Light Rain
10:53 AM 43.0°F 39.0°F 86% 30.10 in 10.0 miles NNE 5.8 mph - 0.00 in   Overcast
11:53 AM 45.0°F 39.9°F 82% 30.08 in 3.0 miles South 9.2 mph - 0.00 in Rain Light Rain
12:14 PM 46.4°F 42.8°F 87% 30.06 in 2.5 miles South 16.1 mph - 0.00 in Rain Light Rain
12:53 PM 46.9°F 44.1°F 90% 30.06 in 1.5 miles South 18.4 mph - 0.02 in Rain Light Rain
1:32 PM 46.4°F 44.6°F 93% 30.03 in 3.0 miles South 11.5 mph - 0.04 in Rain Light Rain
1:43 PM 48.2°F 44.6°F 87% 30.03 in 3.0 miles South 11.5 mph - 0.04 in Rain Light Rain
1:53 PM 48.9°F 43.0°F 80% 30.04 in 10.0 miles South 13.8 mph - 0.04 in   Overcast
2:53 PM 51.1°F 43.0°F 74% 30.03 in 10.0 miles South 16.1 mph - N/A   Overcast
3:53 PM 52.0°F 42.1°F 69% 30.01 in 10.0 miles South 16.1 mph - N/A   Overcast
4:53 PM 53.1°F 41.0°F 64% 29.99 in 10.0 miles South 15.0 mph - N/A   Overcast
5:53 PM 53.1°F 39.9°F 61% 29.97 in 10.0 miles South 13.8 mph - N/A   Mostly Cloudy
6:53 PM 54.0°F 39.0°F 57% 29.96 in 10.0 miles South 16.1 mph - N/A   Scattered Clouds
7:53 PM 54.0°F 39.0°F 57% 29.95 in 10.0 miles South 19.6 mph - N/A   Clear
9:53 PM 54.0°F 36.0°F 51% 29.93 in 10.0 miles SSE 15.0 mph - N/A   Partly Cloudy
10:53 PM 55.0°F 35.1°F 47% 29.90 in 10.0 miles South 20.7 mph 27.6 mph N/A   Clear
11:53 PM 55.0°F 35.1°F 47% 29.90 in 10.0 miles South 18.4 mph 24.2 mph N/A   Clear
Moon Phase
Jan. 08 Jan. 11 Jan. 18 Jan. 26 Feb. 03
Sunrise:07:34 AM (PST) Moon Rise:04:11 AM (PST)1/8
Sunset:04:26 PM (PST) Moon Set:01:33 PM (PST)1/8

Copyright © 2014 The Weather Underground, Inc.